AAL1472 KDFW-KEWR

Flight info

Callsign AAL1472
Flight time 2h 44m
Altitude 39000
Route ZACHH4 BSKAT DCT LIT J131 PXV DCT ROD DCT KLYNE Q29 DORET J584 SLT FQM3
Aircraft MD11/H-SDE1E2E3FGHIJ2J3J4J5M1RWXY/LB1D1

Departure

Time 2026-04-26 03:55
Airport Dallas Fort Worth International Airport (KDFW)

Arrival

Time 2026-04-26 06:39
Airport Newark Liberty International Airport (KEWR)
Time Latitude Longitude Altitude Speed Heading
2026-04-26 03:07 32.90196 -97.03646 594 ft 0 kts 328°
2026-04-26 03:37 32.90192 -97.03642 594 ft 3 kts 328°
2026-04-26 03:37 32.90169 -97.03626 594 ft 4 kts 332°
2026-04-26 03:37 32.90145 -97.03616 594 ft 4 kts 12°
2026-04-26 03:38 32.90131 -97.03629 594 ft 2 kts 82°
2026-04-26 03:38 32.90127 -97.03656 594 ft 4 kts 82°
2026-04-26 03:38 32.90127 -97.03661 594 ft 0 kts 82°
2026-04-26 03:45 32.90128 -97.03647 594 ft 4 kts 83°
2026-04-26 03:45 32.90132 -97.03585 594 ft 11 kts 88°
2026-04-26 03:46 32.90113 -97.03477 594 ft 15 kts 96°
2026-04-26 03:46 32.90108 -97.03331 593 ft 19 kts 90°
2026-04-26 03:46 32.90125 -97.03202 586 ft 9 kts 55°
2026-04-26 03:47 32.90142 -97.03192 584 ft 1 kts
2026-04-26 03:47 32.90174 -97.03190 583 ft 8 kts
2026-04-26 03:47 32.90248 -97.03190 583 ft 13 kts 359°
2026-04-26 03:47 32.90355 -97.03192 587 ft 17 kts 359°
2026-04-26 03:48 32.90482 -97.03194 584 ft 20 kts
2026-04-26 03:48 32.90617 -97.03190 581 ft 19 kts
2026-04-26 03:48 32.90738 -97.03188 585 ft 16 kts
2026-04-26 03:48 32.90831 -97.03187 586 ft 11 kts
2026-04-26 03:49 32.90901 -97.03186 587 ft 9 kts
2026-04-26 03:49 32.90958 -97.03186 586 ft 8 kts
2026-04-26 03:49 32.91011 -97.03185 588 ft 7 kts
2026-04-26 03:49 32.91059 -97.03185 587 ft 6 kts
2026-04-26 03:50 32.91097 -97.03185 586 ft 5 kts
2026-04-26 03:50 32.91124 -97.03185 586 ft 3 kts
2026-04-26 03:50 32.91137 -97.03184 586 ft 1 kts
2026-04-26 03:50 32.91138 -97.03184 586 ft 0 kts
2026-04-26 03:51 32.91143 -97.03184 586 ft 2 kts
2026-04-26 03:51 32.91163 -97.03185 587 ft 4 kts 359°
2026-04-26 03:51 32.91200 -97.03185 588 ft 7 kts 359°
2026-04-26 03:51 32.91269 -97.03185 588 ft 13 kts 359°
2026-04-26 03:52 32.91392 -97.03186 587 ft 22 kts 360°
2026-04-26 03:52 32.91513 -97.03178 584 ft 9 kts 25°
2026-04-26 03:52 32.91547 -97.03129 587 ft 7 kts 65°
2026-04-26 03:52 32.91559 -97.03079 586 ft 6 kts 80°
2026-04-26 03:53 32.91554 -97.03029 585 ft 6 kts 110°
2026-04-26 03:53 32.91533 -97.03002 587 ft 3 kts 145°
2026-04-26 03:53 32.91505 -97.02990 588 ft 7 kts 167°
2026-04-26 03:53 32.91487 -97.02990 587 ft 0 kts 179°
2026-04-26 03:54 32.91484 -97.02990 585 ft 5 kts 179°
2026-04-26 03:54 32.91231 -97.02989 588 ft 82 kts 181°
2026-04-26 03:54 32.90370 -97.02991 581 ft 161 kts 180°
2026-04-26 03:55 32.89116 -97.03023 976 ft 187 kts 182°
2026-04-26 03:55 32.87810 -97.03047 1869 ft 184 kts 178°
2026-04-26 03:55 32.86547 -97.02990 3023 ft 185 kts 179°
2026-04-26 03:55 32.85245 -97.02851 4033 ft 195 kts 172°
2026-04-26 03:56 32.83809 -97.02306 4349 ft 238 kts 164°
2026-04-26 03:56 32.82172 -97.01536 4878 ft 266 kts 162°
2026-04-26 03:56 32.80404 -97.00624 5675 ft 288 kts 160°
2026-04-26 03:56 32.78532 -96.99588 6608 ft 305 kts 159°
2026-04-26 03:57 32.76858 -96.98227 8124 ft 296 kts 139°
2026-04-26 03:57 32.75679 -96.96164 9084 ft 310 kts 112°
2026-04-26 03:57 32.75334 -96.93621 9989 ft 317 kts 87°
2026-04-26 03:57 32.75565 -96.90928 10420 ft 345 kts 79°
2026-04-26 03:58 32.76005 -96.87979 10556 ft 381 kts 78°
2026-04-26 03:58 32.76544 -96.84776 11189 ft 394 kts 73°
2026-04-26 03:58 32.77502 -96.81702 12110 ft 400 kts 63°
2026-04-26 03:58 32.78773 -96.78738 13032 ft 405 kts 59°
2026-04-26 03:59 32.80163 -96.75804 13931 ft 410 kts 58°
2026-04-26 03:59 32.81592 -96.72845 14749 ft 415 kts 58°
2026-04-26 03:59 32.83024 -96.69847 15549 ft 420 kts 58°
2026-04-26 03:59 32.83974 -96.67833 16050 ft 424 kts 58°
2026-04-26 04:00 32.85411 -96.64748 16814 ft 429 kts 58°
2026-04-26 04:00 32.86850 -96.61625 17562 ft 434 kts 58°
2026-04-26 04:00 32.88301 -96.58455 18266 ft 439 kts 58°
2026-04-26 04:00 32.89763 -96.55251 18935 ft 442 kts 58°
2026-04-26 04:01 32.91234 -96.52019 19562 ft 446 kts 58°
2026-04-26 04:01 32.92716 -96.48761 20165 ft 450 kts 58°
2026-04-26 04:01 32.94212 -96.45469 20790 ft 454 kts 58°
2026-04-26 04:01 32.95726 -96.42137 21312 ft 461 kts 58°
2026-04-26 04:02 32.97257 -96.38764 21903 ft 465 kts 58°
2026-04-26 04:02 32.98802 -96.35358 22520 ft 470 kts 58°
2026-04-26 04:02 33.00337 -96.31894 23174 ft 474 kts 60°
2026-04-26 04:02 33.01731 -96.28333 23909 ft 476 kts 62°
2026-04-26 04:03 33.03044 -96.24695 24492 ft 480 kts 63°
2026-04-26 04:03 33.04327 -96.21001 25087 ft 484 kts 63°
2026-04-26 04:03 33.05612 -96.17271 25694 ft 488 kts 63°
2026-04-26 04:03 33.06911 -96.13515 26273 ft 492 kts 63°
2026-04-26 04:04 33.08228 -96.09730 26846 ft 496 kts 63°
2026-04-26 04:04 33.09560 -96.05922 27401 ft 501 kts 63°
2026-04-26 04:04 33.10913 -96.02066 27949 ft 505 kts 63°
2026-04-26 04:04 33.12275 -95.98186 28490 ft 510 kts 63°
2026-04-26 04:05 33.13648 -95.94271 29043 ft 514 kts 63°
2026-04-26 04:05 33.15030 -95.90326 29566 ft 518 kts 63°
2026-04-26 04:05 33.16423 -95.86343 30028 ft 522 kts 63°
2026-04-26 04:05 33.17819 -95.82331 30454 ft 525 kts 63°
2026-04-26 04:06 33.19210 -95.78308 30951 ft 524 kts 63°
2026-04-26 04:06 33.20579 -95.74342 31503 ft 523 kts 63°
2026-04-26 04:06 33.21962 -95.70337 32111 ft 521 kts 64°
2026-04-26 04:06 33.23343 -95.66343 32595 ft 520 kts 64°
2026-04-26 04:07 33.24723 -95.62353 33137 ft 520 kts 64°
2026-04-26 04:07 33.26104 -95.58355 33613 ft 520 kts 63°
2026-04-26 04:07 33.27481 -95.54367 34043 ft 519 kts 63°
2026-04-26 04:07 33.28857 -95.50377 34423 ft 519 kts 63°
2026-04-26 04:08 33.30248 -95.46338 34780 ft 519 kts 63°
2026-04-26 04:08 33.31603 -95.42400 35124 ft 519 kts 63°
2026-04-26 04:08 33.32974 -95.38405 35466 ft 519 kts 63°
2026-04-26 04:08 33.34343 -95.34415 35813 ft 519 kts 63°
2026-04-26 04:09 33.35710 -95.30426 36208 ft 517 kts 63°
2026-04-26 04:09 33.37069 -95.26452 36593 ft 516 kts 63°
2026-04-26 04:09 33.38424 -95.22485 36936 ft 515 kts 63°
2026-04-26 04:09 33.39775 -95.18526 37268 ft 514 kts 63°
2026-04-26 04:10 33.41127 -95.14561 37581 ft 514 kts 63°
2026-04-26 04:10 33.42476 -95.10600 37887 ft 514 kts 63°
2026-04-26 04:10 33.43822 -95.06642 38186 ft 513 kts 63°
2026-04-26 04:10 33.45165 -95.02685 38472 ft 513 kts 63°
2026-04-26 04:11 33.46509 -94.98725 38694 ft 513 kts 63°
2026-04-26 04:11 33.49204 -94.90752 38779 ft 519 kts 63°
2026-04-26 04:12 33.51879 -94.82745 38795 ft 517 kts 63°
2026-04-26 04:12 33.54557 -94.74756 38794 ft 517 kts 63°
2026-04-26 04:13 33.57241 -94.66762 38796 ft 517 kts 63°
2026-04-26 04:13 33.59920 -94.58771 38805 ft 517 kts 62°
2026-04-26 04:14 33.62618 -94.50713 38804 ft 524 kts 63°
2026-04-26 04:14 33.65320 -94.42612 38801 ft 527 kts 63°
2026-04-26 04:15 33.68054 -94.34384 38802 ft 527 kts 63°
2026-04-26 04:15 33.70896 -94.26284 38808 ft 523 kts 58°
2026-04-26 04:16 33.74341 -94.18697 38822 ft 519 kts 53°
2026-04-26 04:16 33.78007 -94.11205 38818 ft 521 kts 53°
2026-04-26 04:17 33.81642 -94.03672 38813 ft 521 kts 54°
2026-04-26 04:17 33.85239 -93.96088 38816 ft 522 kts 54°
2026-04-26 04:18 33.88818 -93.88494 38819 ft 522 kts 54°
2026-04-26 04:18 33.92412 -93.80865 38828 ft 527 kts 54°
2026-04-26 04:19 33.96034 -93.73163 38827 ft 530 kts 55°
2026-04-26 04:19 33.99656 -93.65432 38826 ft 530 kts 55°
2026-04-26 04:20 34.03438 -93.57846 38828 ft 527 kts 51°
2026-04-26 04:20 34.07485 -93.50494 38835 ft 526 kts 50°
2026-04-26 04:21 34.11568 -93.43181 38845 ft 526 kts 50°
2026-04-26 04:21 34.15629 -93.35833 38860 ft 526 kts 50°
2026-04-26 04:22 34.19666 -93.28471 38886 ft 525 kts 50°
2026-04-26 04:22 34.23691 -93.21111 38883 ft 525 kts 50°
2026-04-26 04:23 34.27712 -93.13747 38885 ft 525 kts 50°
2026-04-26 04:23 34.31735 -93.06366 38880 ft 525 kts 50°
2026-04-26 04:24 34.35757 -92.98973 38867 ft 527 kts 50°
2026-04-26 04:24 34.39784 -92.91554 38858 ft 528 kts 50°
2026-04-26 04:25 34.43809 -92.84121 38857 ft 528 kts 50°
2026-04-26 04:25 34.47825 -92.76674 38888 ft 528 kts 50°
2026-04-26 04:26 34.51822 -92.69212 38897 ft 528 kts 50°
2026-04-26 04:26 34.55818 -92.61762 38912 ft 526 kts 50°
2026-04-26 04:27 34.59778 -92.54387 38916 ft 525 kts 50°
2026-04-26 04:27 34.63760 -92.46964 38914 ft 525 kts 50°
2026-04-26 04:28 34.67737 -92.39531 38914 ft 525 kts 50°
2026-04-26 04:28 34.71708 -92.32092 38942 ft 525 kts 50°
2026-04-26 04:29 34.75684 -92.24630 38921 ft 527 kts 50°
2026-04-26 04:29 34.79920 -92.17421 38907 ft 520 kts 43°
2026-04-26 04:30 34.84665 -92.10833 38905 ft 516 kts 40°
2026-04-26 04:30 34.89492 -92.04357 38906 ft 517 kts 40°
2026-04-26 04:31 34.94280 -91.97819 38907 ft 517 kts 40°
2026-04-26 04:31 34.99040 -91.91237 38927 ft 518 kts 41°
2026-04-26 04:32 35.03806 -91.84619 38913 ft 520 kts 41°
2026-04-26 04:32 35.08584 -91.77975 38919 ft 521 kts 41°
2026-04-26 04:33 35.13359 -91.71326 38922 ft 521 kts 41°
2026-04-26 04:33 35.18134 -91.64663 38955 ft 521 kts 41°
2026-04-26 04:34 35.22903 -91.57997 38948 ft 521 kts 41°
2026-04-26 04:34 35.27667 -91.51324 38947 ft 520 kts 41°
2026-04-26 04:35 35.32417 -91.44655 38945 ft 520 kts 41°
2026-04-26 04:35 35.37156 -91.37955 38946 ft 520 kts 41°
2026-04-26 04:36 35.41894 -91.31255 38942 ft 520 kts 41°
2026-04-26 04:36 35.46637 -91.24558 38955 ft 520 kts 41°
2026-04-26 04:37 35.51378 -91.17854 38972 ft 518 kts 41°
2026-04-26 04:37 35.56037 -91.11246 38953 ft 513 kts 41°
2026-04-26 04:38 35.60702 -91.04625 38944 ft 512 kts 41°
2026-04-26 04:38 35.65360 -90.98002 38942 ft 512 kts 41°
2026-04-26 04:39 35.70017 -90.91367 38939 ft 512 kts 41°
2026-04-26 04:39 35.74669 -90.84723 38941 ft 512 kts 41°
2026-04-26 04:40 35.79289 -90.78106 38946 ft 506 kts 42°
2026-04-26 04:40 35.83864 -90.71546 38947 ft 504 kts 42°
2026-04-26 04:41 35.88432 -90.64976 38929 ft 504 kts 42°
2026-04-26 04:41 35.92979 -90.58392 38923 ft 504 kts 42°
2026-04-26 04:42 35.97536 -90.51804 38922 ft 504 kts 42°
2026-04-26 04:42 36.02090 -90.45223 38915 ft 504 kts 42°
2026-04-26 04:43 36.06644 -90.38632 38918 ft 504 kts 42°
2026-04-26 04:43 36.11187 -90.32042 38925 ft 503 kts 42°
2026-04-26 04:44 36.15715 -90.25460 38925 ft 502 kts 42°
2026-04-26 04:44 36.20242 -90.18868 38950 ft 502 kts 42°
2026-04-26 04:45 36.24768 -90.12267 38953 ft 502 kts 43°
2026-04-26 04:45 36.29359 -90.05786 38943 ft 499 kts 39°
2026-04-26 04:46 36.34039 -89.99437 38937 ft 498 kts 39°
2026-04-26 04:46 36.38727 -89.93103 38933 ft 498 kts 39°
2026-04-26 04:47 36.42609 -89.87834 38933 ft 498 kts 39°
2026-04-26 04:47 36.47276 -89.81476 38933 ft 498 kts 39°
2026-04-26 04:48 36.54270 -89.71919 38936 ft 499 kts 40°
2026-04-26 04:48 36.58934 -89.65530 38946 ft 499 kts 40°
2026-04-26 04:49 36.63595 -89.59127 38941 ft 499 kts 40°
2026-04-26 04:49 36.68241 -89.52707 38939 ft 499 kts 40°
2026-04-26 04:50 36.72892 -89.46284 38941 ft 499 kts 40°
2026-04-26 04:50 36.77543 -89.39860 38944 ft 499 kts 40°
2026-04-26 04:51 36.82190 -89.33430 38939 ft 499 kts 40°
2026-04-26 04:51 36.86828 -89.26998 38956 ft 499 kts 40°
2026-04-26 04:52 36.91471 -89.20551 38963 ft 499 kts 41°
2026-04-26 04:52 36.96099 -89.14106 38967 ft 498 kts 41°
2026-04-26 04:53 37.00694 -89.07697 38973 ft 497 kts 41°
2026-04-26 04:53 37.05295 -89.01263 38936 ft 496 kts 41°
2026-04-26 04:54 37.09890 -88.94830 38934 ft 496 kts 41°
2026-04-26 04:54 37.14483 -88.88387 38934 ft 496 kts 41°
2026-04-26 04:55 37.19067 -88.81934 38936 ft 495 kts 43°
2026-04-26 04:55 37.23620 -88.75477 38945 ft 494 kts 43°
2026-04-26 04:56 37.28184 -88.69015 38937 ft 494 kts 43°
2026-04-26 04:56 37.32745 -88.62561 38931 ft 494 kts 43°
2026-04-26 04:57 37.37307 -88.56099 38937 ft 494 kts 43°
2026-04-26 04:57 37.41866 -88.49626 38939 ft 494 kts 43°
2026-04-26 04:58 37.46424 -88.43146 38943 ft 494 kts 43°
2026-04-26 04:58 37.50965 -88.36670 38939 ft 493 kts 44°
2026-04-26 04:59 37.55499 -88.30191 38944 ft 493 kts 44°
2026-04-26 04:59 37.60030 -88.23706 38944 ft 493 kts 44°
2026-04-26 05:00 37.64557 -88.17214 38946 ft 493 kts 44°
2026-04-26 05:00 37.69080 -88.10714 38959 ft 493 kts 44°
2026-04-26 05:01 37.73605 -88.04195 38965 ft 494 kts 44°
2026-04-26 05:01 37.78113 -87.97644 38960 ft 494 kts 44°
2026-04-26 05:02 37.82626 -87.91094 38968 ft 494 kts 44°
2026-04-26 05:02 37.87145 -87.84542 38974 ft 494 kts 44°
2026-04-26 05:03 37.91662 -87.77986 38975 ft 494 kts 44°
2026-04-26 05:03 37.96131 -87.71372 38975 ft 494 kts 45°
2026-04-26 05:04 38.00557 -87.64730 38982 ft 493 kts 46°
2026-04-26 05:04 38.04983 -87.58080 38980 ft 493 kts 46°
2026-04-26 05:05 38.09403 -87.51437 38981 ft 493 kts 46°
2026-04-26 05:05 38.13825 -87.44781 38977 ft 493 kts 46°
2026-04-26 05:06 38.18241 -87.38120 38979 ft 492 kts 46°
2026-04-26 05:06 38.22647 -87.31461 38978 ft 492 kts 46°
2026-04-26 05:07 38.27020 -87.24837 38973 ft 492 kts 46°
2026-04-26 05:07 38.31422 -87.18155 38983 ft 492 kts 46°
2026-04-26 05:08 38.35817 -87.11471 38984 ft 492 kts 46°
2026-04-26 05:08 38.40211 -87.04773 38986 ft 492 kts 46°
2026-04-26 05:09 38.44599 -86.98073 38985 ft 492 kts 46°
2026-04-26 05:09 38.48974 -86.91342 38986 ft 492 kts 46°
2026-04-26 05:10 38.53337 -86.84610 38987 ft 492 kts 46°
2026-04-26 05:10 38.57703 -86.77888 38989 ft 492 kts 46°
2026-04-26 05:11 38.62075 -86.71156 38992 ft 492 kts 46°
2026-04-26 05:11 38.66441 -86.64419 38990 ft 492 kts 46°
2026-04-26 05:12 38.70804 -86.57671 38981 ft 492 kts 46°
2026-04-26 05:12 38.75156 -86.50925 38992 ft 492 kts 46°
2026-04-26 05:13 38.79509 -86.44164 38988 ft 491 kts 47°
2026-04-26 05:13 38.83852 -86.37403 39002 ft 491 kts 47°
2026-04-26 05:14 38.88199 -86.30624 38996 ft 492 kts 47°
2026-04-26 05:14 38.92535 -86.23845 38985 ft 492 kts 47°
2026-04-26 05:15 38.96878 -86.17042 38993 ft 492 kts 47°
2026-04-26 05:15 39.01206 -86.10221 38985 ft 493 kts 47°
2026-04-26 05:16 39.05496 -86.03426 38989 ft 493 kts 47°
2026-04-26 05:16 39.09830 -85.96577 38994 ft 493 kts 47°
2026-04-26 05:17 39.14166 -85.89726 38993 ft 493 kts 47°
2026-04-26 05:17 39.18498 -85.82868 38998 ft 493 kts 47°
2026-04-26 05:18 39.22822 -85.76006 38997 ft 493 kts 47°
2026-04-26 05:18 39.27143 -85.69135 39004 ft 493 kts 47°
2026-04-26 05:19 39.31471 -85.62238 39005 ft 494 kts 47°
2026-04-26 05:19 39.35791 -85.55338 39005 ft 494 kts 47°
2026-04-26 05:20 39.40111 -85.48423 39010 ft 494 kts 47°
2026-04-26 05:20 39.44421 -85.41508 39020 ft 494 kts 47°
2026-04-26 05:21 39.48736 -85.34570 39038 ft 495 kts 47°
2026-04-26 05:21 39.53045 -85.27606 39026 ft 496 kts 48°
2026-04-26 05:22 39.57344 -85.20612 39034 ft 496 kts 48°
2026-04-26 05:22 39.61645 -85.13631 39046 ft 496 kts 48°
2026-04-26 05:23 39.65949 -85.06647 39056 ft 495 kts 48°
2026-04-26 05:23 39.70253 -84.99653 39073 ft 496 kts 48°
2026-04-26 05:24 39.74553 -84.92648 39064 ft 496 kts 48°
2026-04-26 05:24 39.78854 -84.85625 39064 ft 496 kts 48°
2026-04-26 05:25 39.83150 -84.78594 39064 ft 496 kts 48°
2026-04-26 05:25 39.87407 -84.71611 39062 ft 496 kts 48°
2026-04-26 05:26 39.91697 -84.64559 39071 ft 497 kts 48°
2026-04-26 05:26 39.95986 -84.57493 39066 ft 497 kts 48°
2026-04-26 05:27 40.00277 -84.50406 39075 ft 497 kts 48°
2026-04-26 05:27 40.04552 -84.43311 39076 ft 498 kts 49°
2026-04-26 05:28 40.08812 -84.36190 39078 ft 498 kts 49°
2026-04-26 05:28 40.13078 -84.29073 39082 ft 498 kts 49°
2026-04-26 05:29 40.17359 -84.21939 39079 ft 499 kts 49°
2026-04-26 05:29 40.21635 -84.14798 39077 ft 499 kts 49°
2026-04-26 05:30 40.25904 -84.07651 39085 ft 499 kts 49°
2026-04-26 05:30 40.30175 -84.00486 39088 ft 499 kts 49°
2026-04-26 05:31 40.34441 -83.93311 39097 ft 499 kts 49°
2026-04-26 05:31 40.38712 -83.86111 39092 ft 500 kts 49°
2026-04-26 05:32 40.42949 -83.78952 39091 ft 500 kts 49°
2026-04-26 05:32 40.47236 -83.71691 39091 ft 500 kts 49°
2026-04-26 05:33 40.51460 -83.64425 39090 ft 501 kts 50°
2026-04-26 05:33 40.55581 -83.57029 39090 ft 501 kts 51°
2026-04-26 05:34 40.59650 -83.49680 39092 ft 501 kts 51°
2026-04-26 05:34 40.63764 -83.42270 39098 ft 501 kts 51°
2026-04-26 05:35 40.67210 -83.36064 39100 ft 501 kts 51°
2026-04-26 05:35 40.71360 -83.28685 39108 ft 501 kts 50°
2026-04-26 05:36 40.75610 -83.21409 39104 ft 501 kts 49°
2026-04-26 05:36 40.79883 -83.14146 39109 ft 501 kts 49°
2026-04-26 05:37 40.84148 -83.06867 39103 ft 501 kts 49°
2026-04-26 05:37 40.88379 -82.99614 39110 ft 502 kts 49°
2026-04-26 05:38 40.92631 -82.92304 39119 ft 502 kts 49°
2026-04-26 05:38 40.96879 -82.84984 39110 ft 502 kts 49°
2026-04-26 05:39 41.01125 -82.77650 39107 ft 501 kts 49°
2026-04-26 05:39 41.05360 -82.70319 39108 ft 501 kts 49°
2026-04-26 05:40 41.09592 -82.62974 39113 ft 501 kts 49°
2026-04-26 05:40 41.13803 -82.55624 39109 ft 501 kts 51°
2026-04-26 05:41 41.17453 -82.47705 39115 ft 504 kts 59°
2026-04-26 05:41 41.20686 -82.39437 39119 ft 505 kts 60°
2026-04-26 05:42 41.23910 -82.31164 39119 ft 504 kts 59°
2026-04-26 05:42 41.27185 -82.22913 39120 ft 504 kts 59°
2026-04-26 05:43 41.30470 -82.14681 39125 ft 504 kts 59°
2026-04-26 05:43 41.33756 -82.06430 39120 ft 504 kts 59°
2026-04-26 05:44 41.36779 -81.97987 39100 ft 506 kts 64°
2026-04-26 05:44 41.39509 -81.89337 39100 ft 507 kts 65°
2026-04-26 05:45 41.42213 -81.80673 39100 ft 507 kts 65°
2026-04-26 05:45 41.44943 -81.72020 39100 ft 507 kts 65°
2026-04-26 05:46 41.47683 -81.63362 39118 ft 507 kts 64°
2026-04-26 05:46 41.50418 -81.54699 39121 ft 507 kts 65°
2026-04-26 05:47 41.53143 -81.46033 39120 ft 507 kts 65°
2026-04-26 05:47 41.55836 -81.37399 39118 ft 507 kts 65°
2026-04-26 05:48 41.58534 -81.28699 39103 ft 507 kts 65°
2026-04-26 05:48 41.61233 -81.20007 39103 ft 507 kts 65°
2026-04-26 05:49 41.65281 -81.06955 39111 ft 507 kts 65°
2026-04-26 05:50 41.67971 -80.98245 39099 ft 507 kts 65°
2026-04-26 05:50 41.70655 -80.89527 39095 ft 507 kts 65°
2026-04-26 05:51 41.73330 -80.80805 39090 ft 506 kts 65°
2026-04-26 05:51 41.75997 -80.72082 39094 ft 506 kts 65°
2026-04-26 05:52 41.78641 -80.63338 39089 ft 507 kts 67°
2026-04-26 05:52 41.80170 -80.54115 39086 ft 511 kts 86°
2026-04-26 05:53 41.79538 -80.44650 39081 ft 512 kts 101°
2026-04-26 05:53 41.78092 -80.35298 39073 ft 513 kts 101°
2026-04-26 05:54 41.76901 -80.25885 39067 ft 513 kts 98°
2026-04-26 05:54 41.75920 -80.16433 39068 ft 513 kts 97°
2026-04-26 05:55 41.74979 -80.06968 39069 ft 512 kts 97°
2026-04-26 05:55 41.74020 -79.97517 39072 ft 512 kts 98°
2026-04-26 05:56 41.73042 -79.88065 39076 ft 512 kts 98°
2026-04-26 05:56 41.72054 -79.78617 39074 ft 512 kts 98°
2026-04-26 05:57 41.71067 -79.69244 39072 ft 512 kts 98°
2026-04-26 05:57 41.70065 -79.59809 39071 ft 512 kts 98°
2026-04-26 05:58 41.69056 -79.50383 39075 ft 512 kts 98°
2026-04-26 05:58 41.68026 -79.40964 39069 ft 512 kts 99°
2026-04-26 05:59 41.66966 -79.31541 39072 ft 512 kts 99°
2026-04-26 05:59 41.65920 -79.22123 39063 ft 512 kts 99°
2026-04-26 06:00 41.64871 -79.12717 39061 ft 512 kts 99°
2026-04-26 06:00 41.63816 -79.03301 39062 ft 512 kts 99°
2026-04-26 06:01 41.62756 -78.93890 39057 ft 512 kts 99°
2026-04-26 06:01 41.61689 -78.84487 39054 ft 512 kts 99°
2026-04-26 06:02 41.60615 -78.75083 39056 ft 512 kts 99°
2026-04-26 06:02 41.59533 -78.65684 39054 ft 512 kts 99°
2026-04-26 06:03 41.58449 -78.56347 39055 ft 512 kts 99°
2026-04-26 06:03 41.57351 -78.46948 39062 ft 512 kts 99°
2026-04-26 06:04 41.56245 -78.37546 39061 ft 512 kts 99°
2026-04-26 06:04 41.55131 -78.28154 39070 ft 512 kts 99°
2026-04-26 06:05 41.54010 -78.18764 39087 ft 512 kts 100°
2026-04-26 06:05 41.52870 -78.09381 39086 ft 512 kts 100°
2026-04-26 06:06 41.51698 -78.00007 39085 ft 512 kts 100°
2026-04-26 06:06 41.50451 -77.90649 39093 ft 513 kts 101°
2026-04-26 06:07 41.49129 -77.81299 39092 ft 513 kts 102°
2026-04-26 06:07 41.47801 -77.71958 39096 ft 513 kts 102°
2026-04-26 06:08 41.46472 -77.62610 39098 ft 513 kts 102°
2026-04-26 06:08 41.45140 -77.53272 39102 ft 513 kts 102°
2026-04-26 06:09 41.43802 -77.43939 39113 ft 513 kts 102°
2026-04-26 06:09 41.42452 -77.34597 39110 ft 513 kts 102°
2026-04-26 06:10 41.41097 -77.25275 39111 ft 513 kts 102°
2026-04-26 06:10 41.39733 -77.15941 39104 ft 513 kts 102°
2026-04-26 06:11 41.38363 -77.06618 39105 ft 513 kts 102°
2026-04-26 06:11 41.36983 -76.97292 39102 ft 513 kts 102°
2026-04-26 06:12 41.35590 -76.87969 39099 ft 513 kts 103°
2026-04-26 06:12 41.34098 -76.78686 39100 ft 513 kts 107°
2026-04-26 06:13 41.31935 -76.69660 38821 ft 512 kts 112°
2026-04-26 06:13 41.30717 -76.65214 38394 ft 513 kts 112°
2026-04-26 06:13 41.29479 -76.60762 37742 ft 513 kts 112°
2026-04-26 06:13 41.28253 -76.56314 37145 ft 513 kts 112°
2026-04-26 06:14 41.27054 -76.51916 36566 ft 513 kts 112°
2026-04-26 06:14 41.25848 -76.47446 35962 ft 515 kts 112°
2026-04-26 06:14 41.24643 -76.42960 35391 ft 517 kts 112°
2026-04-26 06:14 41.23435 -76.38452 34804 ft 517 kts 112°
2026-04-26 06:15 41.22230 -76.33957 34233 ft 518 kts 112°
2026-04-26 06:15 41.21017 -76.29442 33529 ft 518 kts 112°
2026-04-26 06:15 41.19801 -76.24932 32880 ft 519 kts 112°
2026-04-26 06:15 41.18575 -76.20412 32250 ft 520 kts 113°
2026-04-26 06:16 41.17338 -76.15892 31607 ft 521 kts 113°
2026-04-26 06:16 41.16097 -76.11368 30960 ft 523 kts 113°
2026-04-26 06:16 41.14851 -76.06832 30297 ft 521 kts 113°
2026-04-26 06:16 41.13625 -76.02361 29032 ft 514 kts 113°
2026-04-26 06:17 41.12413 -75.97941 27943 ft 504 kts 112°
2026-04-26 06:17 41.11227 -75.93619 26925 ft 495 kts 112°
2026-04-26 06:17 41.10060 -75.89375 25948 ft 486 kts 112°
2026-04-26 06:17 41.08911 -75.85202 24983 ft 478 kts 112°
2026-04-26 06:18 41.07779 -75.81102 24051 ft 470 kts 111°
2026-04-26 06:18 41.06666 -75.77074 23032 ft 462 kts 112°
2026-04-26 06:18 41.05570 -75.73112 22030 ft 454 kts 111°
2026-04-26 06:18 41.04496 -75.69237 21472 ft 441 kts 111°
2026-04-26 06:19 41.03427 -75.65395 21338 ft 442 kts 111°
2026-04-26 06:19 41.02365 -75.61601 20243 ft 440 kts 111°
2026-04-26 06:19 41.01305 -75.57839 19340 ft 433 kts 111°
2026-04-26 06:19 41.00264 -75.54130 18482 ft 426 kts 110°
2026-04-26 06:20 40.99242 -75.50473 17516 ft 420 kts 110°
2026-04-26 06:20 40.98239 -75.46879 16605 ft 413 kts 110°
2026-04-26 06:20 40.97248 -75.43335 15707 ft 407 kts 110°
2026-04-26 06:20 40.96273 -75.39846 14836 ft 402 kts 111°
2026-04-26 06:21 40.95309 -75.36406 14016 ft 396 kts 111°
2026-04-26 06:21 40.94677 -75.34152 13410 ft 393 kts 111°
2026-04-26 06:21 40.93411 -75.29653 12829 ft 391 kts 111°
2026-04-26 06:21 40.92468 -75.26306 12445 ft 386 kts 111°
2026-04-26 06:22 40.91857 -75.24136 12188 ft 375 kts 111°
2026-04-26 06:22 40.90972 -75.20998 12041 ft 353 kts 111°
2026-04-26 06:22 40.90139 -75.18047 11928 ft 333 kts 111°
2026-04-26 06:22 40.89350 -75.15257 11840 ft 315 kts 111°
2026-04-26 06:23 40.88596 -75.12594 11560 ft 306 kts 111°
2026-04-26 06:23 40.87849 -75.09970 11128 ft 304 kts 111°
2026-04-26 06:23 40.87107 -75.07363 10709 ft 302 kts 110°
2026-04-26 06:23 40.86370 -75.04770 10297 ft 300 kts 110°
2026-04-26 06:24 40.85642 -75.02202 9862 ft 298 kts 110°
2026-04-26 06:24 40.84918 -74.99647 9428 ft 296 kts 110°
2026-04-26 06:24 40.84202 -74.97113 9022 ft 292 kts 110°
2026-04-26 06:24 40.83496 -74.94621 8606 ft 290 kts 110°
2026-04-26 06:25 40.82722 -74.92177 8215 ft 286 kts 119°
2026-04-26 06:25 40.81614 -74.90023 7859 ft 283 kts 129°
2026-04-26 06:25 40.80365 -74.88035 7589 ft 281 kts 131°
2026-04-26 06:25 40.79088 -74.86085 7338 ft 281 kts 131°
2026-04-26 06:26 40.77808 -74.84146 7098 ft 278 kts 131°
2026-04-26 06:26 40.76543 -74.82229 6960 ft 277 kts 132°
2026-04-26 06:26 40.75278 -74.80306 6914 ft 279 kts 132°
2026-04-26 06:26 40.74022 -74.78398 6851 ft 280 kts 132°
2026-04-26 06:27 40.72745 -74.76457 6790 ft 280 kts 132°
2026-04-26 06:27 40.71453 -74.74495 6728 ft 280 kts 132°
2026-04-26 06:27 40.70180 -74.72560 6661 ft 279 kts 132°
2026-04-26 06:27 40.68907 -74.70625 6599 ft 279 kts 132°
2026-04-26 06:28 40.67639 -74.68699 6546 ft 278 kts 132°
2026-04-26 06:28 40.66372 -74.66777 6490 ft 278 kts 131°
2026-04-26 06:28 40.65112 -74.64865 6425 ft 275 kts 131°
2026-04-26 06:28 40.63862 -74.62968 6354 ft 274 kts 132°
2026-04-26 06:29 40.62622 -74.61089 6248 ft 276 kts 132°
2026-04-26 06:29 40.61350 -74.59162 5988 ft 274 kts 132°
2026-04-26 06:29 40.60115 -74.57291 5639 ft 269 kts 132°
2026-04-26 06:29 40.58897 -74.55449 5279 ft 265 kts 131°
2026-04-26 06:30 40.57693 -74.53629 4906 ft 262 kts 131°
2026-04-26 06:30 40.56503 -74.51834 4507 ft 259 kts 130°
2026-04-26 06:30 40.55329 -74.50064 4127 ft 255 kts 130°
2026-04-26 06:30 40.54177 -74.48326 3783 ft 250 kts 129°
2026-04-26 06:31 40.53061 -74.46646 3463 ft 244 kts 129°
2026-04-26 06:31 40.51955 -74.44980 3129 ft 239 kts 128°
2026-04-26 06:31 40.50876 -74.43354 2857 ft 232 kts 128°
2026-04-26 06:31 40.49892 -74.41771 2774 ft 214 kts 120°
2026-04-26 06:32 40.49312 -74.40077 2767 ft 194 kts 101°
2026-04-26 06:32 40.49262 -74.38426 2756 ft 171 kts 81°
2026-04-26 06:32 40.49542 -74.36964 2758 ft 163 kts 75°
2026-04-26 06:32 40.49855 -74.35519 2798 ft 165 kts 75°
2026-04-26 06:33 40.50172 -74.34078 2784 ft 165 kts 75°
2026-04-26 06:33 40.50493 -74.32638 2799 ft 165 kts 75°
2026-04-26 06:33 40.50817 -74.31196 2777 ft 165 kts 75°
2026-04-26 06:33 40.51156 -74.29762 2784 ft 164 kts 71°
2026-04-26 06:34 40.51692 -74.28432 2652 ft 167 kts 57°
2026-04-26 06:34 40.52535 -74.27385 2468 ft 171 kts 38°
2026-04-26 06:34 40.53573 -74.26611 2354 ft 171 kts 34°
2026-04-26 06:34 40.54605 -74.25848 2239 ft 169 kts 34°
2026-04-26 06:35 40.55589 -74.25168 2079 ft 153 kts 30°
2026-04-26 06:35 40.56519 -74.24584 1887 ft 147 kts 30°
2026-04-26 06:35 40.57439 -74.24000 1712 ft 146 kts 29°
2026-04-26 06:35 40.58350 -74.23422 1661 ft 144 kts 29°
2026-04-26 06:36 40.59212 -74.22877 1653 ft 134 kts 30°
2026-04-26 06:36 40.60047 -74.22344 1689 ft 134 kts 29°
2026-04-26 06:36 40.60888 -74.21809 1657 ft 134 kts 30°
2026-04-26 06:36 40.61725 -74.21275 1470 ft 133 kts 30°
2026-04-26 06:37 40.62554 -74.20748 1262 ft 133 kts 31°
2026-04-26 06:37 40.63392 -74.20212 1088 ft 135 kts 30°
2026-04-26 06:37 40.64235 -74.19677 856 ft 134 kts 29°
2026-04-26 06:37 40.65077 -74.19145 641 ft 136 kts 28°
2026-04-26 06:38 40.65914 -74.18612 465 ft 132 kts 29°
2026-04-26 06:38 40.66734 -74.18079 335 ft 133 kts 27°
2026-04-26 06:38 40.67582 -74.17538 145 ft 133 kts 28°
2026-04-26 06:38 40.68404 -74.17021 36 ft 124 kts 28°
2026-04-26 06:39 40.69026 -74.16625 30 ft 71 kts 25°
2026-04-26 06:39 40.69300 -74.16452 32 ft 27 kts 13°
2026-04-26 06:39 40.69462 -74.16454 31 ft 16 kts 355°
2026-04-26 06:39 40.69539 -74.16465 30 ft 10 kts 353°
2026-04-26 06:40 40.69591 -74.16490 29 ft 7 kts 325°
2026-04-26 06:40 40.69611 -74.16522 29 ft 5 kts 301°
2026-04-26 06:40 40.69637 -74.16584 29 ft 10 kts 298°
2026-04-26 06:40 40.69673 -74.16688 29 ft 11 kts 291°
2026-04-26 06:41 40.69660 -74.16748 29 ft 8 kts 231°
2026-04-26 06:41 40.69611 -74.16787 29 ft 9 kts 205°
2026-04-26 06:41 40.69532 -74.16835 30 ft 16 kts 205°
2026-04-26 06:41 40.69422 -74.16910 30 ft 20 kts 206°
2026-04-26 06:42 40.69275 -74.17003 29 ft 26 kts 206°
2026-04-26 06:42 40.69148 -74.17081 29 ft 15 kts 204°
2026-04-26 06:42 40.69087 -74.17117 29 ft 3 kts 204°
2026-04-26 06:42 40.69084 -74.17119 29 ft 3 kts 204°
2026-04-26 06:43 40.69028 -74.17156 29 ft 15 kts 206°
2026-04-26 06:43 40.68898 -74.17241 30 ft 26 kts 206°
2026-04-26 06:43 40.68706 -74.17363 31 ft 32 kts 205°
2026-04-26 06:43 40.68516 -74.17483 28 ft 29 kts 206°
2026-04-26 06:44 40.68433 -74.17539 30 ft 4 kts 220°
2026-04-26 06:44 40.68424 -74.17574 30 ft 5 kts 262°
2026-04-26 06:44 40.68438 -74.17635 30 ft 8 kts 292°
2026-04-26 06:44 40.68463 -74.17705 29 ft 10 kts 295°
2026-04-26 06:45 40.68454 -74.17785 29 ft 9 kts 230°
2026-04-26 06:45 40.68387 -74.17830 30 ft 11 kts 210°
2026-04-26 06:45 40.68367 -74.17857 30 ft 3 kts 244°
2026-04-26 06:45 40.68366 -74.17893 30 ft 7 kts 274°
2026-04-26 06:46 40.68385 -74.17956 30 ft 9 kts 296°
2026-04-26 06:46 40.68414 -74.18032 30 ft 9 kts 296°
2026-04-26 06:46 40.68451 -74.18116 30 ft 13 kts 304°
2026-04-26 06:46 40.68495 -74.18232 30 ft 15 kts 282°
2026-04-26 06:47 40.68509 -74.18384 30 ft 18 kts 274°
2026-04-26 06:47 40.68521 -74.18506 29 ft 7 kts 281°
2026-04-26 06:47 40.68530 -74.18563 30 ft 5 kts 276°
2026-04-26 06:47 40.68523 -74.18591 30 ft 4 kts 245°
2026-04-26 06:48 40.68503 -74.18621 30 ft 2 kts 223°
2026-04-26 06:48 40.68488 -74.18639 30 ft 4 kts 223°
2026-04-26 06:48 40.68479 -74.18650 30 ft 0 kts 223°